Tracking 30918 objects as of 2-Jul-2025
HD Live streaming from Space Station
objects crossing your sky now

LDPE-3A DEB

Track LDPE-3A DEB now!


NORAD ID: 55267
Int'l Code: 2023-008E
Perigee: 35,244.4 km
Apogee: 35,268.4 km
Inclination: 2.3 °
Period: 1,408.7 minutes
Semi major axis: 41627 km
RCS: Unknown
Launch date: January 15, 2023
Source: United States (US)
Launch site: AIR FORCE EASTERN TEST RANGE (AFETR)

Note: This is SATELLITE DEBRIS
Your satellite tracking list
STARLINK-33588
Track 1 satellite(s)




NASA's NSSDC Master Catalog

Two Line Element Set (TLE):
1 55267U 23008E   25182.66913197 -.00000170  00000-0  00000+0 0  9996
2 55267   2.2713  82.3819 0002875 177.4465 182.1564  1.02219553  4301
Source of the keplerian elements: AFSPC